Regional Weather Roundup
Issued by NWS

Home | Current Version | Previous Version | Text Only | Print | Product List | Glossary Off
Versions: 1 2 3 4 5 6 7 8 9 10 11 12 13 14 15 16 17 18 19 20 21 22 23 24 25 26 27 28 29 30 31 32 33 34 35 36 37 38 39 40 41 42 43 44 45 46 47 48 49 50

000
ASUS43 KMKX 191711
RWRWI

WISCONSIN REGIONAL WEATHER ROUNDUP
NATIONAL WEATHER SERVICE MILWAUKEE/SULLIVAN WI
1200 PM CDT SAT AUG 19 2017

NOTE: "FAIR" INDICATES FEW OR NO CLOUDS BELOW 12,000 FEET WITH NO
SIGNIFICANT WEATHER AND/OR OBSTRUCTIONS TO VISIBILITY.

WIZ001-002-006>008-014>016-023>028-191800-
NORTHWEST WISCONSIN

CITY           SKY/WX    TMP DP  RH WIND       PRES   REMARKS
SUPERIOR ARPT    N/A     77  64  64 W8        29.89F
ASHLAND        SUNNY     78  63  59 SW8       29.90S HX  80
HAYWARD        SUNNY     75  60  59 VRB6      29.94S
SIREN          SUNNY     75  61  62 SW10      29.95S
CUMBERLAND     SUNNY     72  59  64 SW8       29.96F
RICE LAKE      SUNNY     74  60  60 SW10      29.97F
CHETEK         MOSUNNY   74  62  66 W6        29.96S
LADYSMITH      SUNNY     75  60  60 SW8       29.97S
EAU CLAIRE     SUNNY     75  59  57 W9        29.95F
MENOMONIE      SUNNY     75  62  62 W6        29.97S
NEW RICHMOND   SUNNY     75  59  58 SW7       29.97S
OSCEOLA        MOSUNNY   75  61  60 W7        29.98F
$$

WIZ003>005-009-010-017-018-191800-
NORTH CENTRAL WISCONSIN

CITY           SKY/WX    TMP DP  RH WIND       PRES   REMARKS
MANITOWISH WTR SUNNY     75  61  62 SW8       29.92F
ARBOR VITAE    SUNNY     77  63  61 W8        29.93S
WOODRUFF       SUNNY     77  63  61 W8        29.93S
RHINELANDER    SUNNY     76  60  57 W12       29.95S
EAGLE RIVER    SUNNY     74  58  56 W8        29.92F
LAND O LAKES   SUNNY     75  57  54 SW5       29.93S
PHILLIPS       SUNNY     73  61  64 SW8       29.94F
TOMAHAWK         N/A     74  59  59 W9G16     29.95S
MEDFORD        SUNNY     72  60  66 W10       29.96F
MERRILL        SUNNY     73  57  56 W9        29.95S
$$

WIZ029-030-035-036-043>047-191800-
CENTRAL WISCONSIN

CITY           SKY/WX    TMP DP  RH WIND       PRES   REMARKS
WAUSAU         SUNNY     75  60  59 W9        29.94S
MOSINEE        MOSUNNY   75  63  64 W9        29.97S
MARSHFIELD     MOSUNNY   75  61  61 W9        29.96F
STEVENS POINT  SUNNY     74  58  56 W10       29.96F
WAUPACA        SUNNY     79  59  49 W9        29.95S HX  80
WAUTOMA        MOSUNNY   78  61  55 NW8       29.96S HX  80
WISC RAPIDS    SUNNY     77  62  59 W8        29.97F
CAMP DOUGLAS   MOSUNNY   77  61  57 W8        29.96F
$$

WIZ011>013-019>022-031-037>040-048>050-191800-
NORTHEAST WISCONSIN

CITY           SKY/WX    TMP DP  RH WIND       PRES   REMARKS
ANTIGO         SUNNY     73  60  63 W10       29.95S
SHAWANO        SUNNY     79  61  54 W8        29.92S HX  80
OCONTO         SUNNY     77  63  62 W12       29.90S
STURGEON BAY   NOT AVBL
GREEN BAY      SUNNY     77  66  68 W8        29.92F
MANITOWOC      SUNNY     76  62  62 W13       29.93S
APPLETON       SUNNY     75  57  53 W9        29.93S
CLINTONVILLE   SUNNY     77  55  47 W10G17    29.93S
OSHKOSH        SUNNY     75  63  66 W8        29.94F
$$

WIZ032>034-041-042-053>061-191800-
SOUTHWEST WISCONSIN

CITY           SKY/WX    TMP DP  RH WIND       PRES   REMARKS
LA CROSSE      SUNNY     78  60  53 CALM      29.97F
SPARTA         SUNNY     73  57  56 W3        29.98F
VIROQUA        SUNNY     73  61  67 W3        30.00S
BOSCOBEL       SUNNY     78  58  49 SW6       29.98F
PRAIRIE DU CHI SUNNY     76  54  46 SW5       29.97F
PLATTEVILLE    SUNNY     74  63  67 S5        30.00S
$$

WIZ056-057-062-063-064-067-068-191800-
SOUTH CENTRAL WISCONSIN

CITY           SKY/WX    TMP DP  RH WIND       PRES   REMARKS
REEDSBURG      SUNNY     76  60  57 SW6       29.97S
BARABOO/DELLS  SUNNY     77  57  50 W7        29.97F
LONE ROCK      SUNNY     77  61  57 VRB6      29.97F
MINERAL POINT  SUNNY     77  63  61 S3        30.00S
MADISON        MOSUNNY   75  61  61 VRB5      29.97F
MIDDLETON      SUNNY     77  58  52 NW7       29.99S
WATERTOWN      MOSUNNY   73  66  77 CALM      29.98S
MONROE         MOSUNNY   73  59  60 CALM      29.99S
JANESVILLE     NOT AVBL
$$

WIZ051-052-058>065-066-070>072-191800-
SOUTHEAST WISCONSIN

CITY           SKY/WX    TMP DP  RH WIND       PRES   REMARKS
MILWAUKEE      MOSUNNY   78  59  51 CALM      29.96S
WAUKESHA       MOSUNNY   72  61  68 SW6       29.99S
MILWAUKEE/TIMM MOSUNNY   75  57  53 NW5       29.97S
RACINE         SUNNY     77  60  55 NW8       29.98S
KENOSHA        SUNNY     76  59  55 VRB3      29.97F
FOND DU LAC    SUNNY     77  61  57 NW8       29.95F
SHEBOYGAN      SUNNY     76  64  66 W9        29.94S
WEST BEND      MOSUNNY   73  63  68 W7        29.96F
JUNEAU         MOSUNNY   74  61  64 CALM      29.97F
$$

LSZ147-162-191800-
LAKE SUPERIOR

STATION/POSITION TIME  TEMP    WIND        PRES    WAVE
                       AIR SEA DIR/SP/G            HT/PER
                 (UTC) (F)     (DEG/KT/KT) (MB)    (FT/S)
W MID LAKE BUOY  1650   60 59  250/ 12/ 14 1010.6S   2/ 4
DEVILS ISLAND    1700   63     240/ 16/ 18 1011.4F
SAXON HARBOR     1640   76     260/  3/ 10 1011.9S
$$

LMZ867-665-643>646-191800-
LAKE MICHIGAN

STATION/POSITION TIME  TEMP    WIND        PRES    WAVE
                       AIR SEA DIR/SP/G            HT/PER
                 (UTC) (F)     (DEG/KT/KT) (MB)    (FT/S)
S GREEN BAY BUOY 1700   72     230/  8/ 10 1012.5
N MID LAKE BUOY  1650   67 67  230/ 12/ 12 1012.3S   1/ 3
NORTHPORT PIER   1640   72     280/  5/  9 1011.9S
KEWAUNEE LAKESHO 1648   75     290/  7/ 10 1012.1F
SHEBOYGAN LAKESH 1700   74     280/  4/  6 1013.2F
PORT WASHINGTON  1630   76     310/  8/ 10 1014.9S
ATWATER BUOY     1609   71 71  150/  8/ 10 1014.8R
MILWAUKEE LAKESH 1650   69     130/  9/ 10   N/A
S MID LAKE BUOY  1650   69 72  310/  4/  6 1014.7S   1
KENOSHA   LAKESH 1700   73     110/  4/  6 1014.2
$$

TC  - TEMPERATURE IN CELSIUS
VSB - VISIBILITY IN STATUTE MILES
WCI - WIND CHILL INDEX
HX  - HEAT INDEX





USA.gov is the U.S. government's official web portal to all federal, state and local government web resources and services.